| time (UTC) | temp F | wind direction | speed MPH | gust MPH | rain 1hr in | rain 24hr in | rain mn in | humidity % | barometer mb |
| 20260502194010 | 49 | 0 | 0.0 | 0.0 | 0.00 | 0.15 | 0.11 | 84 | 1007.7 |
| 20260502193509 | 49 | 0 | 0.0 | 0.0 | 0.00 | 0.15 | 0.11 | 84 | 1007.8 |
| 20260502193009 | 49 | 0 | 0.0 | 0.0 | 0.00 | 0.15 | 0.11 | 84 | 1007.8 |
| 20260502191509 | 49 | 0 | 0.0 | 0.0 | 0.00 | 0.15 | 0.11 | 86 | 1007.8 |
| 20260502191009 | 49 | 0 | 0.0 | 0.0 | 0.00 | 0.15 | 0.11 | 87 | 1007.9 |
| 20260502190509 | 50 | 0 | 0.0 | 0.0 | 0.00 | 0.15 | 0.11 | 86 | 1008.0 |
| 20260502190009 | 50 | 0 | 0.0 | 0.0 | 0.00 | 0.15 | 0.11 | 87 | 1008.0 |
| 20260502184509 | 49 | 0 | 0.0 | 0.0 | 0.00 | 0.15 | 0.11 | 87 | 1008.2 |
| 20260502184009 | 50 | 0 | 0.0 | 0.0 | 0.00 | 0.15 | 0.11 | 87 | 1008.3 |
| 20260502183508 | 50 | 0 | 0.0 | 0.0 | 0.00 | 0.15 | 0.11 | 87 | 1008.3 |
| 20260502183008 | 50 | 0 | 0.0 | 0.0 | 0.00 | 0.15 | 0.11 | 87 | 1008.3 |
| 20260502181509 | 50 | 0 | 0.0 | 0.0 | 0.00 | 0.15 | 0.11 | 86 | 1008.4 |
| 20260502181009 | 50 | 0 | 0.0 | 0.0 | 0.00 | 0.15 | 0.11 | 87 | 1008.3 |
| 20260502180508 | 50 | 0 | 0.0 | 0.0 | 0.00 | 0.15 | 0.11 | 87 | 1008.2 |
| 20260502170509 | 52 | 0 | 0.0 | 0.0 | 0.00 | 0.15 | 0.11 | 82 | 1008.5 |
| 20260502163009 | 51 | 0 | 0.0 | 0.0 | 0.00 | 0.15 | 0.11 | 86 | 1008.6 |
| 20260502161509 | 51 | 0 | 0.0 | 0.0 | 0.00 | 0.15 | 0.11 | 86 | 1008.5 |
| 20260502161009 | 51 | 0 | 0.0 | 0.0 | 0.00 | 0.15 | 0.11 | 86 | 1008.6 |
| 20260502160509 | 51 | 0 | 0.0 | 0.0 | 0.00 | 0.15 | 0.11 | 87 | 1008.6 |
| 20260502151508 | 49 | 0 | 0.0 | 0.0 | 0.00 | 0.15 | 0.11 | 93 | 1009.0 |
| 20260502151008 | 49 | 0 | 0.0 | 0.0 | 0.00 | 0.15 | 0.11 | 94 | 1009.1 |
| 20260502150508 | 49 | 0 | 0.0 | 0.0 | 0.01 | 0.15 | 0.11 | 93 | 1009.1 |
| 20260502130507 | 45 | 0 | 0.0 | 0.0 | 0.07 | 0.10 | 0.08 | 98 | 1009.6 |
| 20260502123508 | 45 | 0 | 0.0 | 0.0 | 0.01 | 0.03 | 0.02 | 92 | 1009.7 |
| 20260502123007 | 45 | 0 | 0.0 | 0.0 | 0.00 | 0.02 | 0.01 | 92 | 1009.6 |
| 20260502121507 | 45 | 0 | 0.0 | 0.0 | 0.01 | 0.02 | 0.01 | 93 | 1009.1 |
| 20260502121008 | 45 | 0 | 0.0 | 0.0 | 0.01 | 0.02 | 0.01 | 93 | 1009.0 |
| 20260502120507 | 44 | 0 | 0.0 | 0.0 | 0.01 | 0.02 | 0.01 | 94 | 1008.9 |
| 20260502114508 | 43 | 0 | 0.0 | 0.0 | 0.01 | 0.02 | 0.01 | 96 | 1009.1 |
| 20260502114007 | 43 | 0 | 0.0 | 0.0 | 0.01 | 0.02 | 0.01 | 96 | 1009.1 |
| 20260502113507 | 43 | 0 | 0.0 | 0.0 | 0.01 | 0.02 | 0.01 | 94 | 1009.2 |
| 20260502111507 | 43 | 0 | 0.0 | 0.0 | 0.01 | 0.01 | 0.01 | 90 | 1009.5 |
| 20260502110507 | 43 | 0 | 0.0 | 0.0 | 0.00 | 0.00 | 0.00 | 87 | 1009.5 |
| 20260502110006 | 43 | 0 | 0.0 | 0.0 | 0.00 | 0.00 | 0.00 | 86 | 1009.4 |
| 20260502104507 | 43 | 0 | 0.0 | 0.0 | 0.00 | 0.00 | 0.00 | 83 | 1009.2 |
| 20260502104007 | 42 | 0 | 0.0 | 0.0 | 0.00 | 0.00 | 0.00 | 83 | 1009.2 |
| 20260502103507 | 42 | 0 | 0.0 | 0.0 | 0.00 | 0.00 | 0.00 | 82 | 1009.2 |
| 20260502103007 | 42 | 0 | 0.0 | 0.0 | 0.00 | 0.00 | 0.00 | 83 | 1009.2 |
| 20260502101507 | 42 | 0 | 0.0 | 0.0 | 0.00 | 0.00 | 0.00 | 84 | 1009.0 |
| 20260502101007 | 41 | 0 | 0.0 | 0.0 | 0.00 | 0.00 | 0.00 | 83 | 1009.0 |
| 20260502100507 | 41 | 0 | 0.0 | 0.0 | 0.00 | 0.00 | 0.00 | 84 | 1009.0 |
| 20260502091506 | 40 | 0 | 0.0 | 0.0 | 0.00 | 0.00 | 0.00 | 83 | 1008.6 |
| 20260502091006 | 40 | 0 | 0.0 | 0.0 | 0.00 | 0.00 | 0.00 | 83 | 1008.7 |
| 20260502090507 | 40 | 0 | 0.0 | 0.0 | 0.00 | 0.00 | 0.00 | 83 | 1008.6 |
| 20260502071506 | 39 | 0 | 0.0 | 0.0 | 0.00 | 0.00 | 0.00 | 82 | 1009.6 |
| 20260502071006 | 39 | 0 | 0.0 | 0.0 | 0.00 | 0.00 | 0.00 | 82 | 1009.6 |
| 20260502070506 | 39 | 0 | 0.0 | 0.0 | 0.00 | 0.00 | 0.00 | 82 | 1009.6 |
| 20260502070007 | 39 | 0 | 0.0 | 0.0 | 0.00 | 0.00 | 0.00 | 82 | 1009.6 |
| 20260502063506 | 38 | 0 | 0.0 | 0.0 | 0.00 | 0.00 | 0.00 | 81 | 1009.4 |
| 20260502063007 | 38 | 0 | 0.0 | 0.0 | 0.00 | 0.00 | 0.00 | 82 | 1009.2 |
| 20260502061506 | 38 | 0 | 0.0 | 0.0 | 0.00 | 0.00 | 0.00 | 83 | 1009.2 |
| 20260502061006 | 38 | 0 | 0.0 | 0.0 | 0.00 | 0.00 | 0.00 | 83 | 1009.0 |
| 20260502060506 | 38 | 0 | 0.0 | 0.0 | 0.00 | 0.00 | 0.00 | 83 | 1009.0 |
| 20260502060006 | 38 | 0 | 0.0 | 0.0 | 0.00 | 0.00 | 0.00 | 83 | 1009.0 |
| 20260502054505 | 37 | 0 | 0.0 | 0.0 | 0.00 | 0.00 | 0.00 | 83 | 1008.8 |
| 20260502053506 | 37 | 0 | 0.0 | 0.0 | 0.00 | 0.00 | 0.00 | 82 | 1009.0 |
| 20260502053006 | 37 | 0 | 0.0 | 0.0 | 0.00 | 0.00 | 0.00 | 82 | 1009.0 |
| 20260502051505 | 37 | 0 | 0.0 | 0.0 | 0.00 | 0.00 | 0.00 | 83 | 1008.9 |
| 20260502050006 | 37 | 0 | 0.0 | 0.0 | 0.00 | 0.00 | 0.00 | 83 | 1008.7 |
| 20260502043506 | 37 | 0 | 0.0 | 0.0 | 0.00 | 0.00 | 0.00 | 81 | 1008.7 |
| 20260502043005 | 37 | 0 | 0.0 | 0.0 | 0.00 | 0.00 | 0.00 | 81 | 1008.7 |
| 20260502041005 | 38 | 0 | 0.0 | 0.0 | 0.00 | 0.00 | 0.00 | 79 | 1008.5 |
| 20260502040506 | 38 | 0 | 0.0 | 0.0 | 0.00 | 0.00 | 0.00 | 79 | 1008.5 |
| 20260502040005 | 38 | 0 | 0.0 | 0.0 | 0.00 | 0.00 | 0.00 | 79 | 1008.5 |
| 20260502034005 | 39 | 0 | 0.0 | 0.0 | 0.00 | 0.00 | 0.00 | 76 | 1008.4 |
| 20260502033505 | 39 | 0 | 0.0 | 0.0 | 0.00 | 0.00 | 0.00 | 76 | 1008.4 |
| 20260502033005 | 39 | 0 | 0.0 | 0.0 | 0.00 | 0.00 | 0.00 | 76 | 1008.4 |
| 20260502031505 | 40 | 0 | 0.0 | 0.0 | 0.00 | 0.00 | 0.00 | 75 | 1008.4 |
| 20260502031005 | 40 | 0 | 0.0 | 0.0 | 0.00 | 0.00 | 0.00 | 75 | 1008.4 |
| 20260502030505 | 40 | 0 | 0.0 | 0.0 | 0.00 | 0.00 | 0.00 | 75 | 1008.4 |
| 20260502030005 | 41 | 0 | 0.0 | 0.0 | 0.00 | 0.00 | 0.00 | 73 | 1008.4 |
| 20260502024005 | 42 | 0 | 0.0 | 0.0 | 0.00 | 0.00 | 0.00 | 71 | 1008.3 |
| 20260502023005 | 42 | 0 | 0.0 | 0.0 | 0.00 | 0.00 | 0.00 | 70 | 1008.3 |
| 20260502021505 | 43 | 0 | 0.0 | 0.0 | 0.00 | 0.00 | 0.00 | 67 | 1008.3 |
| 20260502021005 | 43 | 0 | 0.0 | 0.0 | 0.00 | 0.00 | 0.00 | 66 | 1008.3 |
| 20260502020004 | 44 | 0 | 0.0 | 0.0 | 0.00 | 0.00 | 0.00 | 67 | 1008.4 |
| 20260502014004 | 45 | 0 | 0.0 | 0.0 | 0.00 | 0.00 | 0.00 | 63 | 1008.3 |
| 20260502013004 | 46 | 0 | 0.0 | 0.0 | 0.00 | 0.00 | 0.00 | 61 | 1008.3 |
| 20260502011504 | 47 | 0 | 0.0 | 0.0 | 0.00 | 0.00 | 0.00 | 58 | 1008.1 |
| 20260502011004 | 48 | 0 | 0.0 | 0.0 | 0.00 | 0.00 | 0.00 | 58 | 1008.1 |
| 20260502010504 | 48 | 0 | 0.0 | 0.0 | 0.00 | 0.00 | 0.00 | 57 | 1008.0 |
| 20260502010005 | 49 | 0 | 0.0 | 0.0 | 0.00 | 0.00 | 0.00 | 54 | 1007.9 |
| 20260502004504 | 51 | 0 | 0.0 | 0.0 | 0.00 | 0.00 | 0.00 | 49 | 1007.8 |
| 20260502004005 | 51 | 0 | 0.0 | 0.0 | 0.00 | 0.00 | 0.00 | 51 | 1007.7 |
| 20260502003504 | 52 | 0 | 0.0 | 0.0 | 0.00 | 0.00 | 0.00 | 46 | 1007.6 |
| 20260502003004 | 52 | 0 | 0.0 | 0.0 | 0.00 | 0.00 | 0.00 | 46 | 1007.6 |
| 20260502001504 | 54 | 0 | 0.0 | 0.0 | 0.00 | 0.00 | 0.00 | 40 | 1007.4 |
| 20260502001004 | 54 | 0 | 0.0 | 0.0 | 0.00 | 0.00 | 0.00 | 40 | 1007.3 |
| 20260502000504 | 54 | 0 | 0.0 | 0.0 | 0.00 | 0.00 | 0.00 | 40 | 1007.2 |
| 20260502000005 | 55 | 0 | 0.0 | 0.0 | 0.00 | 0.00 | 0.00 | 39 | 1007.1 |
| 20260501234505 | 56 | 0 | 0.0 | 0.0 | 0.00 | 0.00 | 0.00 | 37 | 1006.8 |
| 20260501234004 | 56 | 0 | 0.0 | 0.0 | 0.00 | 0.00 | 0.00 | 38 | 1006.8 |
| 20260501233505 | 56 | 0 | 0.0 | 0.0 | 0.00 | 0.00 | 0.00 | 37 | 1006.7 |
| 20260501233004 | 57 | 0 | 0.0 | 0.0 | 0.00 | 0.00 | 0.00 | 36 | 1006.6 |
| 20260501231504 | 57 | 0 | 0.0 | 0.0 | 0.00 | 0.00 | 0.00 | 35 | 1006.4 |
| 20260501231004 | 58 | 0 | 0.0 | 0.0 | 0.00 | 0.00 | 0.00 | 36 | 1006.3 |
| 20260501230504 | 58 | 0 | 0.0 | 0.0 | 0.00 | 0.00 | 0.00 | 35 | 1006.2 |
| 20260501230004 | 58 | 0 | 0.0 | 0.0 | 0.00 | 0.00 | 0.00 | 35 | 1006.2 |
| 20260501224504 | 59 | 0 | 0.0 | 0.0 | 0.00 | 0.00 | 0.00 | 35 | 1006.0 |
| 20260501224004 | 59 | 0 | 0.0 | 0.0 | 0.00 | 0.00 | 0.00 | 35 | 1006.0 |
| 20260501223503 | 59 | 0 | 0.0 | 0.0 | 0.00 | 0.00 | 0.00 | 34 | 1005.9 |
| 20260501223003 | 59 | 0 | 0.0 | 0.0 | 0.00 | 0.00 | 0.00 | 35 | 1005.9 |
| 20260501221504 | 60 | 0 | 0.0 | 0.0 | 0.00 | 0.00 | 0.00 | 34 | 1005.6 |
| 20260501221004 | 60 | 0 | 0.0 | 0.0 | 0.00 | 0.00 | 0.00 | 36 | 1005.7 |
| 20260501220510 | 60 | 0 | 0.0 | 0.0 | 0.00 | 0.00 | 0.00 | 36 | 1005.5 |
| 20260501220010 | 60 | 0 | 0.0 | 0.0 | 0.00 | 0.00 | 0.00 | 35 | 1005.4 |
| 20260501214509 | 60 | 0 | 0.0 | 0.0 | 0.00 | 0.00 | 0.00 | 34 | 1005.3 |
| 20260501214010 | 60 | 0 | 0.0 | 0.0 | 0.00 | 0.00 | 0.00 | 35 | 1005.2 |
| 20260501213510 | 60 | 0 | 0.0 | 0.0 | 0.00 | 0.00 | 0.00 | 35 | 1005.2 |
| 20260501213010 | 61 | 0 | 0.0 | 0.0 | 0.00 | 0.00 | 0.00 | 35 | 1005.2 |
| 20260501211509 | 61 | 0 | 0.0 | 0.0 | 0.00 | 0.00 | 0.00 | 36 | 1004.9 |
| 20260501210510 | 61 | 0 | 0.0 | 0.0 | 0.00 | 0.00 | 0.00 | 36 | 1004.8 |
| 20260501204509 | 61 | 0 | 0.0 | 0.0 | 0.00 | 0.00 | 0.00 | 36 | 1004.7 |
| 20260501204009 | 61 | 0 | 0.0 | 0.0 | 0.00 | 0.00 | 0.00 | 34 | 1004.6 |
| 20260501203510 | 61 | 0 | 0.0 | 0.0 | 0.00 | 0.00 | 0.00 | 35 | 1004.6 |
| 20260501203010 | 61 | 0 | 0.0 | 0.0 | 0.00 | 0.00 | 0.00 | 33 | 1004.6 |
| 20260501201509 | 61 | 0 | 0.0 | 0.0 | 0.00 | 0.00 | 0.00 | 33 | 1004.7 |
| 20260501201009 | 61 | 0 | 0.0 | 0.0 | 0.00 | 0.00 | 0.00 | 35 | 1004.7 |
| 20260501200509 | 62 | 0 | 0.0 | 0.0 | 0.00 | 0.00 | 0.00 | 37 | 1004.7 |
| 20260501194509 | 62 | 0 | 0.0 | 0.0 | 0.00 | 0.00 | 0.00 | 39 | 1004.7 |